UAL930 KLAX-KDFW

Flight info

Callsign UAL930
Flight time N/A
Altitude 39000
Route DOTSS2 CNERY BLH J169 TFD J50 SSO J4 INK GEEKY BOOVE7
Aircraft B772/H-SDE2E3FGHIJ5LORVWXY/LB1D1

Departure

Time 2026-04-23 05:18
Airport Los Angeles International Airport (KLAX)

Arrival

Time N/A
Airport Dallas Fort Worth International Airport (KDFW)
Time Latitude Longitude Altitude Speed Heading
2026-04-23 04:59 33.94087 -118.40947 97 ft 0 kts 263°
2026-04-23 05:09 33.94089 -118.40927 97 ft 4 kts 263°
2026-04-23 05:09 33.94092 -118.40901 96 ft 4 kts 259°
2026-04-23 05:09 33.94099 -118.40871 99 ft 4 kts 239°
2026-04-23 05:09 33.94116 -118.40848 97 ft 4 kts 206°
2026-04-23 05:10 33.94134 -118.40842 96 ft 0 kts 173°
2026-04-23 05:10 33.94114 -118.40839 97 ft 4 kts 173°
2026-04-23 05:10 33.94088 -118.40835 97 ft 4 kts 173°
2026-04-23 05:10 33.94061 -118.40831 98 ft 4 kts 173°
2026-04-23 05:11 33.94034 -118.40827 99 ft 4 kts 173°
2026-04-23 05:11 33.94007 -118.40823 98 ft 3 kts 173°
2026-04-23 05:11 33.94003 -118.40823 98 ft 0 kts 173°
2026-04-23 05:13 33.93942 -118.40814 99 ft 18 kts 173°
2026-04-23 05:13 33.93848 -118.40744 99 ft 16 kts 146°
2026-04-23 05:13 33.93814 -118.40622 100 ft 23 kts 82°
2026-04-23 05:14 33.93858 -118.40198 100 ft 33 kts 83°
2026-04-23 05:14 33.93876 -118.40028 101 ft 32 kts 83°
2026-04-23 05:14 33.93892 -118.39870 102 ft 31 kts 83°
2026-04-23 05:14 33.93913 -118.39664 101 ft 30 kts 83°
2026-04-23 05:15 33.93927 -118.39531 101 ft 30 kts 83°
2026-04-23 05:15 33.93952 -118.39282 100 ft 30 kts 83°
2026-04-23 05:15 33.93978 -118.39033 98 ft 30 kts 83°
2026-04-23 05:15 33.94003 -118.38784 99 ft 30 kts 83°
2026-04-23 05:16 33.94028 -118.38535 102 ft 30 kts 83°
2026-04-23 05:16 33.94053 -118.38285 103 ft 30 kts 83°
2026-04-23 05:16 33.94076 -118.38056 97 ft 14 kts 91°
2026-04-23 05:16 33.93992 -118.38016 98 ft 11 kts 224°
2026-04-23 05:17 33.93979 -118.38073 98 ft 0 kts 262°
2026-04-23 05:17 33.93970 -118.38150 99 ft 31 kts 262°
2026-04-23 05:17 33.93908 -118.38761 101 ft 115 kts 263°
2026-04-23 05:17 33.93783 -118.39960 316 ft 165 kts 263°
2026-04-23 05:18 33.93634 -118.41358 1277 ft 169 kts 263°
2026-04-23 05:18 33.93475 -118.42772 2100 ft 175 kts 264°
2026-04-23 05:18 33.93320 -118.44278 2805 ft 190 kts 265°
2026-04-23 05:18 33.93148 -118.45954 3480 ft 208 kts 264°
2026-04-23 05:19 33.92693 -118.47632 4216 ft 220 kts 239°
2026-04-23 05:19 33.92451 -118.48031 4388 ft 224 kts 229°
2026-04-23 05:19 33.91259 -118.49341 4815 ft 242 kts 223°
2026-04-23 05:19 33.90058 -118.50732 5136 ft 244 kts 227°
2026-04-23 05:20 33.88885 -118.52193 6056 ft 243 kts 229°
2026-04-23 05:20 33.87746 -118.53751 6927 ft 251 kts 233°
2026-04-23 05:20 33.86524 -118.55347 7551 ft 271 kts 221°
2026-04-23 05:20 33.84729 -118.56382 7949 ft 306 kts 195°
2026-04-23 05:21 33.82604 -118.56219 8991 ft 311 kts 166°
2026-04-23 05:21 33.80614 -118.55334 9965 ft 311 kts 165°
2026-04-23 05:21 33.78492 -118.54566 10523 ft 327 kts 169°
2026-04-23 05:21 33.76238 -118.53827 11122 ft 342 kts 170°
2026-04-23 05:22 33.73884 -118.53108 11891 ft 351 kts 171°
2026-04-23 05:22 33.71526 -118.52371 12910 ft 350 kts 167°
2026-04-23 05:22 33.69888 -118.51490 13658 ft 356 kts 153°